| time (UTC) | temp F | wind direction | speed MPH | gust MPH | rain 1hr in | rain 24hr in | rain mn in | humidity % | barometer mb |
| 20260504050505 | 37 | 240 | 0.0 | 0.0 | 0.00 | 0.00 | 0.00 | 81 | 1013.2 |
| 20260504050007 | 38 | 240 | 0.0 | 0.0 | 0.00 | 0.00 | 0.00 | 81 | 1013.3 |
| 20260504045504 | 38 | 240 | 0.0 | 0.0 | 0.00 | 0.00 | 0.00 | 80 | 1013.3 |
| 20260504045003 | 38 | 240 | 0.0 | 0.0 | 0.00 | 0.00 | 0.00 | 79 | 1013.2 |
| 20260504044512 | 38 | 240 | 0.0 | 0.0 | 0.00 | 0.00 | 0.00 | 78 | 1013.2 |
| 20260504044003 | 38 | 240 | 0.0 | 0.0 | 0.00 | 0.00 | 0.00 | 78 | 1013.2 |
| 20260504043504 | 38 | 240 | 0.0 | 0.0 | 0.00 | 0.00 | 0.00 | 77 | 1013.2 |
| 20260504043015 | 38 | 240 | 0.0 | 0.0 | 0.00 | 0.00 | 0.00 | 77 | 1013.2 |
| 20260504042505 | 38 | 240 | 0.0 | 0.0 | 0.00 | 0.00 | 0.00 | 76 | 1013.1 |
| 20260504042004 | 39 | 240 | 0.0 | 0.0 | 0.00 | 0.00 | 0.00 | 76 | 1013.1 |
| 20260504041515 | 39 | 240 | 0.0 | 0.0 | 0.00 | 0.00 | 0.00 | 75 | 1013.0 |
| 20260504041004 | 39 | 240 | 0.0 | 0.0 | 0.00 | 0.00 | 0.00 | 75 | 1012.9 |
| 20260504040504 | 39 | 240 | 0.0 | 0.0 | 0.00 | 0.00 | 0.00 | 74 | 1012.9 |
| 20260504040018 | 39 | 240 | 0.0 | 0.0 | 0.00 | 0.00 | 0.00 | 75 | 1012.9 |
| 20260504035502 | 40 | 240 | 0.0 | 0.0 | 0.00 | 0.00 | 0.00 | 74 | 1012.8 |
| 20260504035005 | 40 | 240 | 0.0 | 0.0 | 0.00 | 0.00 | 0.00 | 73 | 1012.7 |
| 20260504034528 | 40 | 240 | 0.0 | 0.0 | 0.00 | 0.00 | 0.00 | 73 | 1012.7 |
| 20260504034002 | 40 | 240 | 0.0 | 0.0 | 0.00 | 0.00 | 0.00 | 72 | 1012.6 |
| 20260504033506 | 40 | 240 | 0.0 | 0.0 | 0.00 | 0.00 | 0.00 | 72 | 1012.6 |
| 20260504033026 | 40 | 240 | 0.0 | 0.0 | 0.00 | 0.00 | 0.00 | 72 | 1012.5 |
| 20260504032504 | 41 | 240 | 0.0 | 0.0 | 0.00 | 0.00 | 0.00 | 72 | 1012.6 |
| 20260504032007 | 41 | 240 | 0.0 | 0.0 | 0.00 | 0.00 | 0.00 | 71 | 1012.6 |
| 20260504031514 | 41 | 240 | 0.0 | 0.0 | 0.00 | 0.00 | 0.00 | 70 | 1012.6 |
| 20260504031006 | 41 | 240 | 0.0 | 0.0 | 0.00 | 0.00 | 0.00 | 71 | 1012.5 |
| 20260504030503 | 42 | 240 | 0.0 | 0.0 | 0.00 | 0.00 | 0.00 | 69 | 1012.5 |
| 20260504030010 | 42 | 240 | 0.0 | 0.0 | 0.00 | 0.00 | 0.00 | 69 | 1012.5 |
| 20260504025507 | 42 | 240 | 0.0 | 0.0 | 0.00 | 0.00 | 0.00 | 68 | 1012.5 |
| 20260504025003 | 42 | 240 | 0.0 | 0.0 | 0.00 | 0.00 | 0.00 | 67 | 1012.5 |
| 20260504024535 | 43 | 240 | 0.0 | 0.0 | 0.00 | 0.00 | 0.00 | 67 | 1012.5 |
| 20260504024007 | 43 | 240 | 0.0 | 0.0 | 0.00 | 0.00 | 0.00 | 66 | 1012.4 |
| 20260504023502 | 43 | 240 | 0.0 | 0.0 | 0.00 | 0.00 | 0.00 | 66 | 1012.4 |
| 20260504023018 | 43 | 240 | 0.0 | 0.0 | 0.00 | 0.00 | 0.00 | 66 | 1012.4 |
| 20260504022506 | 44 | 240 | 0.0 | 0.0 | 0.00 | 0.00 | 0.00 | 65 | 1012.4 |
| 20260504022007 | 44 | 240 | 0.0 | 0.0 | 0.00 | 0.00 | 0.00 | 64 | 1012.5 |
| 20260504021517 | 44 | 240 | 0.0 | 0.0 | 0.00 | 0.00 | 0.00 | 64 | 1012.5 |
| 20260504021003 | 45 | 240 | 0.0 | 0.0 | 0.00 | 0.00 | 0.00 | 64 | 1012.5 |
| 20260504020506 | 45 | 240 | 0.0 | 0.0 | 0.00 | 0.00 | 0.00 | 64 | 1012.4 |
| 20260504020017 | 45 | 240 | 0.0 | 0.0 | 0.00 | 0.00 | 0.00 | 63 | 1012.3 |
| 20260504015503 | 45 | 239 | 0.0 | 0.0 | 0.00 | 0.00 | 0.00 | 63 | 1012.1 |
| 20260504015007 | 46 | 239 | 0.0 | 0.0 | 0.00 | 0.00 | 0.00 | 62 | 1012.1 |
| 20260504014520 | 46 | 239 | 0.0 | 0.0 | 0.00 | 0.00 | 0.00 | 61 | 1012.1 |
| 20260504014007 | 46 | 239 | 0.0 | 0.0 | 0.00 | 0.00 | 0.00 | 59 | 1012.1 |
| 20260504013506 | 47 | 239 | 0.0 | 0.0 | 0.00 | 0.00 | 0.00 | 59 | 1012.0 |
| 20260504013016 | 47 | 239 | 0.0 | 0.0 | 0.00 | 0.00 | 0.00 | 57 | 1012.0 |
| 20260504012507 | 48 | 239 | 0.0 | 0.0 | 0.00 | 0.00 | 0.00 | 56 | 1012.0 |
| 20260504012007 | 48 | 239 | 0.0 | 0.0 | 0.00 | 0.00 | 0.00 | 54 | 1012.0 |
| 20260504011514 | 48 | 239 | 0.0 | 0.0 | 0.00 | 0.00 | 0.00 | 53 | 1011.9 |
| 20260504011008 | 49 | 239 | 0.0 | 0.0 | 0.00 | 0.00 | 0.00 | 53 | 1011.8 |
| 20260504010510 | 49 | 239 | 0.0 | 0.0 | 0.00 | 0.00 | 0.00 | 51 | 1011.8 |
| 20260504010019 | 50 | 239 | 0.0 | 0.0 | 0.00 | 0.00 | 0.00 | 51 | 1011.8 |
| 20260504005506 | 50 | 239 | 0.0 | 0.0 | 0.00 | 0.00 | 0.00 | 49 | 1011.7 |
| 20260504005006 | 50 | 239 | 0.0 | 0.0 | 0.00 | 0.00 | 0.00 | 49 | 1011.7 |
| 20260504004534 | 51 | 239 | 0.0 | 0.0 | 0.00 | 0.00 | 0.00 | 48 | 1011.7 |
| 20260504004006 | 51 | 239 | 0.0 | 0.0 | 0.00 | 0.00 | 0.00 | 47 | 1011.7 |
| 20260504003507 | 52 | 239 | 0.0 | 0.0 | 0.00 | 0.00 | 0.00 | 46 | 1011.5 |
| 20260504003019 | 52 | 239 | 0.0 | 0.0 | 0.00 | 0.00 | 0.00 | 45 | 1011.5 |
| 20260504002506 | 53 | 247 | 0.0 | 0.0 | 0.00 | 0.00 | 0.00 | 44 | 1011.5 |
| 20260504002006 | 53 | 247 | 0.0 | 0.0 | 0.00 | 0.00 | 0.00 | 43 | 1011.5 |
| 20260504001519 | 54 | 247 | 0.0 | 2.0 | 0.00 | 0.00 | 0.00 | 44 | 1011.4 |
| 20260504001007 | 54 | 247 | 0.0 | 2.0 | 0.00 | 0.00 | 0.00 | 43 | 1011.4 |
| 20260504000507 | 54 | 282 | 0.0 | 2.0 | 0.00 | 0.00 | 0.00 | 42 | 1011.3 |
| 20260504000021 | 55 | 223 | 0.0 | 2.0 | 0.00 | 0.00 | 0.00 | 43 | 1011.2 |
| 20260503235504 | 55 | 244 | 0.0 | 2.0 | 0.00 | 0.00 | 0.00 | 40 | 1011.2 |
| 20260503235006 | 55 | 203 | 0.0 | 2.0 | 0.00 | 0.00 | 0.00 | 42 | 1011.1 |
| 20260503234518 | 56 | 143 | 0.0 | 2.0 | 0.00 | 0.00 | 0.00 | 37 | 1011.1 |
| 20260503234006 | 56 | 155 | 0.0 | 2.0 | 0.00 | 0.00 | 0.00 | 38 | 1011.0 |
| 20260503233509 | 56 | 132 | 0.0 | 2.0 | 0.00 | 0.00 | 0.00 | 40 | 1011.0 |
| 20260503233018 | 57 | 283 | 0.0 | 2.0 | 0.00 | 0.00 | 0.00 | 37 | 1010.9 |
| 20260503232506 | 57 | 283 | 0.0 | 2.0 | 0.00 | 0.00 | 0.00 | 35 | 1010.9 |
| 20260503232007 | 57 | 101 | 0.0 | 3.0 | 0.00 | 0.00 | 0.00 | 35 | 1010.9 |
| 20260503231516 | 57 | 132 | 0.0 | 3.0 | 0.00 | 0.00 | 0.00 | 35 | 1010.9 |
| 20260503231012 | 57 | 239 | 0.0 | 3.0 | 0.00 | 0.00 | 0.00 | 33 | 1010.9 |
| 20260503230507 | 57 | 262 | 0.0 | 2.0 | 0.00 | 0.00 | 0.00 | 34 | 1010.8 |
| 20260503230022 | 58 | 84 | 0.0 | 2.0 | 0.00 | 0.00 | 0.00 | 34 | 1010.8 |
| 20260503225506 | 58 | 322 | 0.0 | 3.0 | 0.00 | 0.00 | 0.00 | 33 | 1010.8 |
| 20260503225012 | 58 | 295 | 1.0 | 3.0 | 0.00 | 0.00 | 0.00 | 33 | 1010.8 |
| 20260503224520 | 58 | 180 | 0.0 | 4.0 | 0.00 | 0.00 | 0.00 | 34 | 1010.8 |
| 20260503224008 | 58 | 50 | 1.0 | 8.0 | 0.00 | 0.00 | 0.00 | 32 | 1010.8 |
| 20260503223506 | 58 | 336 | 0.0 | 8.0 | 0.00 | 0.00 | 0.00 | 31 | 1010.8 |
| 20260503223009 | 58 | 56 | 2.0 | 4.0 | 0.00 | 0.00 | 0.00 | 31 | 1010.8 |
| 20260503222502 | 59 | 77 | 0.0 | 12.0 | 0.00 | 0.00 | 0.00 | 32 | 1010.8 |
| 20260503222002 | 59 | 184 | 1.0 | 12.0 | 0.00 | 0.00 | 0.00 | 31 | 1010.9 |
| 20260503221506 | 59 | 220 | 1.0 | 4.0 | 0.00 | 0.00 | 0.00 | 31 | 1010.8 |
| 20260503221006 | 59 | 173 | 0.0 | 5.0 | 0.00 | 0.00 | 0.00 | 31 | 1010.8 |
| 20260503220505 | 59 | 53 | 1.0 | 6.0 | 0.00 | 0.00 | 0.00 | 31 | 1010.8 |
| 20260503220003 | 59 | 28 | 1.0 | 6.0 | 0.00 | 0.00 | 0.00 | 29 | 1010.8 |
| 20260503215505 | 59 | 322 | 2.0 | 5.0 | 0.00 | 0.00 | 0.00 | 30 | 1010.7 |
| 20260503215002 | 60 | 132 | 1.0 | 5.0 | 0.00 | 0.00 | 0.00 | 29 | 1010.7 |
| 20260503214503 | 59 | 130 | 1.0 | 5.0 | 0.00 | 0.00 | 0.00 | 30 | 1010.7 |
| 20260503214003 | 60 | 82 | 2.0 | 9.0 | 0.00 | 0.00 | 0.00 | 28 | 1010.5 |
| 20260503213503 | 60 | 114 | 0.0 | 9.0 | 0.00 | 0.00 | 0.00 | 30 | 1010.5 |
| 20260503213021 | 60 | 326 | 2.0 | 8.0 | 0.00 | 0.00 | 0.00 | 28 | 1010.5 |
| 20260503212503 | 60 | 118 | 1.0 | 7.0 | 0.00 | 0.00 | 0.00 | 28 | 1010.4 |
| 20260503212004 | 61 | 242 | 0.0 | 7.0 | 0.00 | 0.00 | 0.00 | 29 | 1010.3 |
| 20260503211525 | 61 | 112 | 2.0 | 5.0 | 0.00 | 0.00 | 0.00 | 28 | 1010.3 |
| 20260503211003 | 62 | 146 | 1.0 | 10.0 | 0.00 | 0.00 | 0.00 | 30 | 1010.2 |
| 20260503210503 | 61 | 91 | 2.0 | 10.0 | 0.00 | 0.00 | 0.00 | 27 | 1010.3 |
| 20260503210014 | 62 | 244 | 2.0 | 8.0 | 0.00 | 0.00 | 0.00 | 27 | 1010.2 |
| 20260503205502 | 62 | 333 | 2.0 | 8.0 | 0.00 | 0.00 | 0.00 | 27 | 1010.2 |
| 20260503205006 | 61 | 153 | 1.0 | 8.0 | 0.00 | 0.00 | 0.00 | 26 | 1010.1 |
| 20260503204513 | 61 | 265 | 3.0 | 9.0 | 0.00 | 0.00 | 0.00 | 27 | 1010.2 |
| 20260503204002 | 61 | 9 | 3.0 | 9.0 | 0.00 | 0.00 | 0.00 | 28 | 1010.3 |
| 20260503203507 | 61 | 15 | 1.0 | 9.0 | 0.00 | 0.00 | 0.00 | 29 | 1010.3 |
| 20260503203010 | 61 | 286 | 3.0 | 9.0 | 0.00 | 0.00 | 0.00 | 27 | 1010.5 |
| 20260503202503 | 61 | 101 | 2.0 | 9.0 | 0.00 | 0.00 | 0.00 | 28 | 1010.3 |
| 20260503202004 | 60 | 184 | 4.0 | 9.0 | 0.00 | 0.00 | 0.00 | 27 | 1010.6 |
| 20260503201510 | 60 | 333 | 2.0 | 9.0 | 0.00 | 0.00 | 0.00 | 26 | 1010.7 |
| 20260503201007 | 60 | 98 | 0.0 | 9.0 | 0.00 | 0.00 | 0.00 | 33 | 1010.7 |
| 20260503200504 | 60 | 180 | 1.0 | 11.0 | 0.00 | 0.00 | 0.00 | 29 | 1010.7 |
| 20260503200006 | 59 | 360 | 5.0 | 14.0 | 0.00 | 0.00 | 0.00 | 31 | 1010.9 |
| 20260503195512 | 58 | 127 | 1.0 | 14.0 | 0.00 | 0.00 | 0.00 | 33 | 1010.9 |
| 20260503195005 | 58 | 51 | 0.0 | 9.0 | 0.00 | 0.00 | 0.00 | 30 | 1011.1 |
| 20260503194504 | 58 | 22 | 2.0 | 14.0 | 0.00 | 0.00 | 0.00 | 29 | 1011.2 |
| 20260503194008 | 58 | 53 | 4.0 | 14.0 | 0.00 | 0.00 | 0.00 | 29 | 1011.2 |
| 20260503193507 | 58 | 329 | 3.0 | 15.0 | 0.00 | 0.00 | 0.00 | 32 | 1011.2 |
| 20260503193009 | 58 | 28 | 3.0 | 15.0 | 0.00 | 0.00 | 0.00 | 28 | 1011.3 |
| 20260503192508 | 59 | 57 | 3.0 | 10.0 | 0.00 | 0.00 | 0.00 | 30 | 1011.3 |
| 20260503192003 | 58 | 325 | 3.0 | 11.0 | 0.00 | 0.00 | 0.00 | 31 | 1011.4 |
| 20260503191522 | 57 | 290 | 3.0 | 11.0 | 0.00 | 0.00 | 0.00 | 29 | 1011.4 |
| 20260503191006 | 57 | 352 | 2.0 | 11.0 | 0.00 | 0.00 | 0.00 | 32 | 1011.4 |
| 20260503190503 | 56 | 11 | 3.0 | 11.0 | 0.00 | 0.00 | 0.00 | 32 | 1011.5 |
| 20260503190029 | 57 | 44 | 3.0 | 10.0 | 0.00 | 0.00 | 0.00 | 31 | 1011.5 |
| 20260503185505 | 56 | 209 | 3.0 | 12.0 | 0.00 | 0.00 | 0.00 | 30 | 1011.6 |
| 20260503185002 | 56 | 96 | 3.0 | 11.0 | 0.00 | 0.00 | 0.00 | 31 | 1011.7 |
| 20260503184518 | 56 | 303 | 2.0 | 14.0 | 0.00 | 0.00 | 0.00 | 32 | 1011.7 |
| 20260503184004 | 56 | 188 | 3.0 | 14.0 | 0.00 | 0.00 | 0.00 | 30 | 1011.8 |
| 20260503183508 | 56 | 50 | 3.0 | 10.0 | 0.00 | 0.00 | 0.00 | 32 | 1011.9 |
| 20260503183015 | 56 | 5 | 4.0 | 13.0 | 0.00 | 0.00 | 0.00 | 31 | 1011.9 |
| 20260503182504 | 57 | 281 | 5.0 | 13.0 | 0.00 | 0.00 | 0.00 | 29 | 1011.8 |
| 20260503182011 | 57 | 276 | 4.0 | 14.0 | 0.00 | 0.00 | 0.00 | 33 | 1011.9 |
| 20260503181513 | 57 | 10 | 4.0 | 18.0 | 0.00 | 0.00 | 0.00 | 31 | 1012.0 |
| 20260503181004 | 57 | 78 | 6.0 | 18.0 | 0.00 | 0.00 | 0.00 | 29 | 1011.8 |
| 20260503180506 | 57 | 55 | 3.0 | 10.0 | 0.00 | 0.00 | 0.00 | 32 | 1012.0 |
| 20260503180009 | 57 | 339 | 4.0 | 10.0 | 0.00 | 0.00 | 0.00 | 30 | 1011.9 |
| 20260503175507 | 57 | 37 | 2.0 | 12.0 | 0.00 | 0.00 | 0.00 | 31 | 1011.9 |
| 20260503175003 | 56 | 303 | 3.0 | 12.0 | 0.00 | 0.00 | 0.00 | 33 | 1012.0 |
| 20260503174506 | 55 | 22 | 3.0 | 12.0 | 0.00 | 0.00 | 0.00 | 31 | 1011.9 |
| 20260503174008 | 55 | 306 | 2.0 | 13.0 | 0.00 | 0.00 | 0.00 | 31 | 1012.1 |
| 20260503173507 | 56 | 253 | 4.0 | 13.0 | 0.00 | 0.00 | 0.00 | 32 | 1012.3 |
| 20260503173015 | 56 | 182 | 3.0 | 11.0 | 0.00 | 0.00 | 0.00 | 34 | 1012.2 |
| 20260503172506 | 55 | 182 | 3.0 | 11.0 | 0.00 | 0.00 | 0.00 | 32 | 1012.2 |
| 20260503172003 | 54 | 199 | 2.0 | 11.0 | 0.00 | 0.00 | 0.00 | 34 | 1012.3 |
| 20260503171526 | 54 | 336 | 3.0 | 8.0 | 0.00 | 0.00 | 0.00 | 33 | 1012.3 |
| 20260503171009 | 53 | 337 | 2.0 | 14.0 | 0.00 | 0.00 | 0.00 | 34 | 1012.3 |
| 20260503170503 | 53 | 265 | 4.0 | 14.0 | 0.00 | 0.00 | 0.00 | 32 | 1012.5 |
| 20260503151006 | 48 | 78 | 3.0 | 9.0 | 0.00 | 0.00 | 0.00 | 43 | 1013.3 |
| 20260503150504 | 48 | 5 | 2.0 | 9.0 | 0.00 | 0.00 | 0.00 | 42 | 1013.4 |
| 20260503131005 | 45 | 352 | 2.0 | 9.0 | 0.00 | 0.00 | 0.00 | 53 | 1013.7 |
| 20260503130503 | 45 | 71 | 2.0 | 9.0 | 0.00 | 0.00 | 0.00 | 53 | 1013.7 |
| 20260503110512 | 42 | 315 | 1.0 | 6.0 | 0.00 | 0.00 | 0.00 | 62 | 1012.9 |
| 20260503090507 | 43 | 306 | 0.0 | 2.0 | 0.00 | 0.00 | 0.00 | 58 | 1011.7 |
| 20260503081540 | 43 | 265 | 0.0 | 5.0 | 0.00 | 0.00 | 0.00 | 56 | 1011.7 |
| 20260503081007 | 43 | 311 | 0.0 | 5.0 | 0.00 | 0.00 | 0.00 | 55 | 1011.7 |
| 20260503080508 | 43 | 28 | 0.0 | 4.0 | 0.00 | 0.00 | 0.00 | 55 | 1011.7 |
| 20260503072510 | 44 | 284 | 1.0 | 12.0 | 0.00 | 0.01 | 0.00 | 55 | 1011.6 |
| 20260503072008 | 45 | 19 | 0.0 | 2.0 | 0.00 | 0.01 | 0.00 | 54 | 1011.5 |
| 20260503071531 | 45 | 42 | 0.0 | 2.0 | 0.00 | 0.01 | 0.00 | 54 | 1011.4 |
| 20260503071008 | 45 | 309 | 0.0 | 2.0 | 0.00 | 0.02 | 0.00 | 53 | 1011.4 |
| 20260503070509 | 45 | 313 | 0.0 | 6.0 | 0.00 | 0.03 | 0.00 | 53 | 1011.4 |